Hourly Data Report for October 03, 2017

All times are specified in Local Standard Time (LST). Add 1 hour to adjust for Daylight Saving Time where and when it is observed.

IQALUIT CLIMATE
NUNAVUT

63°44'50.000" N
68°32'40.000" W
33.50 m
2402592
71321
XFB

Download Data

Hourly Data (October 2017)
Hourly Data Report for October 3, 2017
Temp Definition
°C
Dew Point Temp Definition
°C
Rel Hum Definition
%
Wind Dir Definition
10's deg

Wind Spd Definition
km/h
Visibility Definition
km
Stn Press Definition
kPa
Hmdx Definition


Wind Chill Definition


Weather Definition


TIME
00:00 1.0 -3.5 72 15 22   100.97     LegendNANA
01:00 1.6 -2.8 73 15 24   100.83     LegendNANA
02:00 2.1 -2.9 69 12 24   100.77     LegendNANA
03:00 2.0 -2.8 71 12 30   100.54     LegendNANA
04:00 2.6 -2.7 68 12 32   100.39     LegendNANA
05:00 2.6 -2.5 69 14 43   100.19     LegendNANA
06:00 2.4 -1.9 73 12 26   100.05     LegendNANA
07:00 2.2 -1.3 78 15 28   99.85     LegendNANA
08:00 3.2 -0.9 74 15 39   99.63     LegendNANA
09:00 3.4 -0.2 77 14 41   99.53     LegendNANA
10:00 3.3 -0.2 78 13 35   99.44     LegendNANA
11:00 3.1 0.3 81 14 28   99.27     LegendNANA
12:00 2.8 0.6 85 16 31   99.12     LegendNANA
13:00 3.1 0.9 86 14 27   98.96     LegendNANA
14:00 2.6 1.0 89 13 22   98.88     LegendNANA
15:00 3.2 1.6 89 15 23   98.76     LegendNANA
16:00 2.4 1.1 92 15 18   98.73     LegendNANA
17:00 3.0 2.1 94 22 13   98.71     LegendNANA
18:00 0.4 -0.3 95 33 29   98.78     LegendNANA
19:00 0.2 -0.9 92 32 35   98.88     LegendNANA
20:00 -1.0 -2.7 88 31 37   99.01   -8 LegendNANA
21:00 -1.8 -3.2 90 32 29   99.15   -9 LegendNANA
22:00 -1.8 -4.6 81 31 25   99.21   -8 LegendNANA
23:00 -2.7 -6.4 75 31 26   99.25   -10 LegendNANA

Notes on Data Quality.

Legend

  • E = Estimated
  • M = Missing
  • NA = Not Available
  • ‡ = Partner data that is not subject to review by the National Climate Archives
Date modified: